軌道要素
Epoch 2014 Dec. 9.0 TT = JDT 2457000.5
T 2015 May 28.90914 TT MPCW
q 1.3489912 (2000.0) P Q
n 0.14417160 Peri. 353.45114 +0.34598795 -0.80062377
a 3.6020487 Node 75.37930 +0.88212542 +0.09997937
e 0.6254933 Incl. 30.36770 +0.31960455 +0.59076704
P 6.84
From 1912 observations 1994 June 12-2015 Feb. 11, mean residual 0".7.
Nongravitational parameters A1 = +0.21, A2 = -0.0380.
|